Regional Weather Roundup
Issued by NWS

Home | Current Version | Previous Version | Text Only | Print | Product List | Glossary On
Versions: 1 2 3 4 5 6 7 8 9 10 11 12 13 14 15 16 17 18 19 20 21 22 23 24 25 26 27 28
000
ASUS44 KJAN 270910
RWRMS

MISSISSIPPI HOURLY WEATHER ROUNDUP
NATIONAL WEATHER SERVICE JACKSON MS
400 AM CDT SAT MAY 27 2017

NOTE: "FAIR: INDICATES FEW OR NO CLOUDS BELOW 12,000 FEET WITH NO
SIGNIFICANT WEATHER AND/OR OBSTRUCTIONS TO VISIBILITY.

MSZ001>002-007>008-010>013-018>021-025>028-034>036-271000-
NORTHWEST MISSISSIPPI

CITY           SKY/WX    TMP DP  RH WIND       PRES   REMARKS
BATESVILLE     FAIR      74  67  79 S8        29.90S
CLARKSDALE       N/A     75  75 100 MISG      29.88S
CLEVELAND      FAIR      74  74 100 S10       29.89S
GREENWOOD      CLEAR     73  68  84 S10       29.92F
GREENVILLE     CLEAR     74  69  85 S10       29.90S
OXFORD         FAIR      72  64  78 S8        29.92F
WINONA         PTSUNNY   71  64  80 SW3       29.94F
$$

MSZ003>006-009-014>017-022>024-029>033-037>039-271000-
NORTHEAST MISSISSIPPI

CITY           SKY/WX    TMP DP  RH WIND       PRES   REMARKS
COLUMBUS AFB   CLOUDY    71  65  83 S10       29.94F
CORINTH        FAIR      72  63  73 S8        29.90F
GOLDN TRIANGLE CLOUDY    70  61  73 SW12      29.93F
STARKVILLE     CLOUDY    68  63  83 S7        29.97F
TUPELO         MOCLDY    72  62  71 S6        29.92F
$$

MSZ040-058-271000-
CENTRAL MISSISSIPPI

CITY           SKY/WX    TMP DP  RH WIND       PRES   REMARKS
JACKSON INTL   CLOUDY    70  65  84 S5        29.98R
JACKSON HAWKNS CLOUDY    69  63  81 CALM      29.98R
MADISON        CLOUDY    64  63  94 CALM      29.98R
MERIDIAN KEY   CLOUDY    68  65  90 CALM      30.01R
MERIDIAN NAS   CLOUDY    69  63  81 SW3       30.01R
VICKSBURG VKS  CLOUDY    72  70  94 CALM      29.94S
$$

MSZ059>079-271000-
SOUTH MISSISSIPPI

CITY           SKY/WX    TMP DP  RH WIND       PRES   REMARKS
COLUMBIA       CLOUDY    72  70  94 S3        30.00S
HATTIESBURG    CLOUDY    71  68  90 CALM      29.99R
MCCOMB         CLOUDY    73  69  87 SW5       29.97R
NATCHEZ        CLOUDY    74  70  87 CALM      29.96R
PINE BELT      CLOUDY    72  66  83 CALM      30.00S
$$

MSZ080>082-271000-
COASTAL MISSISSIPPI

CITY           SKY/WX    TMP DP  RH WIND       PRES   REMARKS
BILOXI         CLOUDY    77  73  89 SW13      29.97S
PASCAGOULA     CLOUDY    76  71  85 S5        29.98S
GULFPORT       CLOUDY    77  74  90 VRB7      29.97S
$$

LAZ007>009-015>016-023>026-271000-
NORTHEAST LOUISIANA

CITY           SKY/WX    TMP DP  RH WIND       PRES   REMARKS
BASTROP        CLOUDY    75  75  98 S7        29.94R
TALLULAH/VBURG CLOUDY    73  70  90 CALM      29.96S
VIDALIA        CLOUDY    73  72  94 CALM      29.93F
$$




USA.gov is the U.S. government's official web portal to all federal, state and local government web resources and services.